Regional Weather Roundup
Issued by NWS

Home | Current Version | Previous Version | Text Only | Print | Product List | Glossary Off
Versions: 1 2 3 4 5 6 7 8 9 10 11 12 13 14 15 16 17 18 19 20 21 22 23 24 25 26 27 28 29 30 31 32 33 34 35 36 37 38 39 40 41 42 43 44 45 46 47 48 49 50

000
ASUS43 KMPX 222201
RWRMN
WEATHER ROUNDUP FOR MINNESOTA
NATIONAL WEATHER SERVICE TWIN CITIES/CHANHASSEN MN
500 PM CDT SUN APR 22 2018


NOTE: "FAIR" INDICATES FEW OR NO CLOUDS BELOW 12,000 FEET WITH NO
SIGNIFICANT WEATHER AND/OR OBSTRUCTIONS TO VISIBILITY. N/A MEANS
CURRENT SKY AND/OR WEATHER CONDITIONS ARE NOT AVAILABLE.

MNZ060>063-068>070-222300-
   Twin Cities Metro

CITY           SKY/WX    TMP DP  RH WIND       PRES   REMARKS
TWIN CITIES    FAIR      62  35  36 VRB6      30.25F
ST PAUL        FAIR      64  34  32 SE10      30.26F
BLAINE         MOSUNNY   64  30  27 SE7       30.25F
LAKEVILLE      FAIR      61  39  44 SE6       30.26F
EDEN PRAIRIE   FAIR      62  36  37 VRB6      30.24F
SOUTH ST PAUL  FAIR      63  34  33 S5        30.25F
LAKE ELMO      FAIR      63  36  36 CALM      30.26F
$$
MNZ001>005-007-008-013>017-022>024-027-028-222300-
   Northwest Minnesota

CITY           SKY/WX    TMP DP  RH WIND       PRES   REMARKS
BEMIDJI        FAIR      63  32  32 S10G17    30.17F
HALLOCK        FAIR      63  39  42 SW17G23   30.09F
ROSEAU         FAIR      59  45  58 SW15G25   30.13F
WARROAD        FAIR      61  43  51 SW18G26   30.13S
THIEF RVR FALL CLOUDY    61  43  51 SW21G26   30.15F
CROOKSTON      FAIR      63  45  51 SW20      30.16S
FOSSTON        FAIR      63  39  42 SW21      30.18F
DETROIT LAKES  FAIR      63  34  34 SW15      30.21F
MOORHEAD       FAIR      64  39  39 S14G23    30.18F
PARK RAPIDS    FAIR      63  34  33 SW15      30.20F
MAHNOMEN       FAIR      60  38  43 S18G26    30.18F
$$
MNZ006-009>011-018-025>026-222300-
   North Central Minnesota

CITY           SKY/WX    TMP DP  RH WIND       PRES   REMARKS
BAUDETTE       FAIR      64  34  32 SW15G25   30.12F
FLAG ISLAND    FAIR      55  34  44 SW23G30   30.09F
INTL FALLS     FAIR      63  29  27 SW12G21   30.15F
WASKISH        CLOUDY    59  32  36 W5        30.16F
BIG FORK       FAIR      63  34  34 S9G21     30.18F
LONGVILLE      FAIR      63  28  27 SW9       30.21F
GRAND RAPIDS   FAIR      60  31  33 S7        30.22F
CRANE LAKE     FAIR      61  23  23 SW10G16   30.20S
ORR            FAIR      63  19  19 S9G16     30.17S
COOK           FAIR      63  28  27 SW9G16    30.20F
WALKER         FAIR      62  31  30 SW13G20   30.19F
$$
MNZ012-019>021-037-222300-
   Northeast Minnesota

CITY           SKY/WX    TMP DP  RH WIND       PRES   REMARKS
DULUTH         FAIR      60  31  33 SW10      30.23F
ELY            FAIR      61  27  27 S9G21     30.19F
HIBBING        FAIR      60  27  28 S9        30.20F
EVELETH        FAIR      61  29  29 SW12      30.22S
DULUTH HARBOR  FAIR      39  34  81 CALM      30.26F
TWO HARBORS    FAIR      64  37  36 S9        30.22F
SILVER BAY     FAIR      59  27  29 SW10      30.22F
GRAND MARAIS     N/A     40  32  73 S3        30.25F
G MARAIS ARPRT FAIR      54  18  24 S8        30.24F
$$
MNZ029>031-032-039>041-046>048-054>057-064-222300-
   West Central Minnesota

CITY           SKY/WX    TMP DP  RH WIND       PRES   REMARKS
FERGUS FALLS   FAIR      63  39  42 S16       30.18F
WHEATON        SUNNY     61  36  39 S14G22    30.23S
MORRIS         SUNNY     61  39  44 S15       30.22F
ALEXANDRIA     FAIR      63  35  35 S14       30.24F
ELBOW LAKE     FAIR      61  37  40 SW13G18   30.23S
WADENA         FAIR      61  36  39 S12G17    30.21F
GLENWOOD       FAIR      61  39  44 S14G20    30.24F
APPLETON       SUNNY     59  37  44 S15G21    30.23F
BENSON         SUNNY     61  39  44 SW13G18   30.25F
ORTONVILLE     SUNNY     61  36  39 S14       30.22F
MADISON        SUNNY     61  39  44 S14       30.24S
WILLMAR        FAIR      59  39  47 S12       30.27F
$$
MNZ033>034-036-042>043-049>051-058-059-222300-
   Central Minnesota

CITY           SKY/WX    TMP DP  RH WIND       PRES   REMARKS
ST CLOUD       FAIR      62  35  36 SW8       30.24F
SAUK CENTRE    FAIR      60  35  38 S12       30.24S
PAYNESVILLE    FAIR      60  37  41 S9        30.25F
AITKIN         FAIR      59  30  33 S9        30.23S
PINE RIVER     FAIR      59  34  38 SW9       30.24F
BRAINERD       FAIR      63  31  30 S12       30.23F
STAPLES        FAIR      63  30  29 SW9       30.22F
LONG PRAIRIE   FAIR      61  34  36 S12       30.23F
LITTLE FALLS   FAIR      61  23  23 S9        30.23F
LITCHFIELD     FAIR      61  39  44 S5        30.25F
BUFFALO        FAIR      62  33  34 SE6       30.26S
MAPLE LAKE     FAIR      62  38  40 S3        30.26F
HUTCHINSON     FAIR      60  42  50 SE7       30.26F
$$
MNZ037-044-045-052-053-222300-
   East Central Minnesota

CITY           SKY/WX    TMP DP  RH WIND       PRES   REMARKS
PRINCETON      FAIR      64  30  27 S8        30.25F
MORA           FAIR      59  30  33 S6        30.27S
CAMBRIDGE      FAIR      64  41  42 S6        30.25F
RUSH CITY      FAIR      62  33  34 S3        30.26S
MOOSE LAKE     FAIR      63  32  31 SW9       30.23F
HINCKLEY       FAIR      61  34  36 S7        30.25F
CLOQUET        FAIR      61  25  25 SW9       30.24F
MCGREGOR       FAIR      61  30  31 SW5       30.24F
$$
MNZ071>073-080-081-089-090-097-098-222300-
   Southwest Minnesota

CITY           SKY/WX    TMP DP  RH WIND       PRES   REMARKS
MONTEVIDEO     SUNNY     57  39  51 S12       30.25S
GRANITE FALLS  SUNNY     58  42  54 SE13      30.26S HAZE
CANBY          SUNNY     56  36  47 SE14      30.25F
MARSHALL       SUNNY     54  37  52 S17       30.24F
REDWOOD FALLS  SUNNY     57  39  51 SE12      30.25F
OLIVIA         SUNNY     59  41  51 S8        30.24F
PIPESTONE      SUNNY    N/A N/A N/A SE12      30.22F
WINDOM         SUNNY     54  30  40 SE10      30.26F
WORTHINGTON    SUNNY     53  38  56 E14       30.24F
JACKSON        SUNNY     48  36  61 E8        30.26F
TRACY          SUNNY     53  41  64 SE10      30.24F
SLAYTON        SUNNY     50  37  61 SE15G21   30.25F
$$
MNZ065>067-074>077-082>085-091>093-222300-
   South Central Minnesota

CITY           SKY/WX    TMP DP  RH WIND       PRES   REMARKS
MANKATO        FAIR      59  41  51 SE10      30.26F
NEW ULM        SUNNY     55  39  54 S7        30.25F
ST JAMES       SUNNY     52  41  66 SE8       30.28S
FAIRMONT       SUNNY     50  37  61 E7        30.27F
GLENCOE        FAIR      62  39  41 SE6       30.25F
OWATONNA       FAIR      59  39  47 SE6       30.26F
WASECA         FAIR      55  37  50 E8        30.27F
ALBERT LEA     FAIR      55  34  44 SE10      30.26F
$$
MNZ078>079-086>088-094>096-222300-
   Southeast Minnesota

CITY           SKY/WX    TMP DP  RH WIND       PRES   REMARKS
ROCHESTER      FAIR      59  38  45 E9        30.26F
RED WING       FAIR      64  25  22 SE8       30.25F
STANTON        FAIR      62  37  39 S8        30.25F
DODGE CENTER   FAIR      59  36  41 E9        30.27F
WINONA         FAIR      63  30  29 SE8       30.24F
AUSTIN         FAIR      57  39  51 E7        30.26F
PRESTON        FAIR      60  31  34 E9        30.27F
$$
ABBREVIATIONS USED IN REMARKS
   TC - TEMPERATURES IN CELSIUS
  WCI - WIND CHILL INDEX
   HX - HEAT INDEX
  VSB - VISIBILITY
$$




USA.gov is the U.S. government's official web portal to all federal, state and local government web resources and services.